TITAN 34D TRANSTAGE DEB, 23040

Orbit data source: Space-Track

TITAN 34D TRANSTAGE DEB, 23040 is space debris in HEO originally from a launch on Fri, 02 Sep 1988 UTC launched from the Air Force Eastern Test Range (AFETR). Debris objects in space refer to the collection of defunct objects orbiting the Earth. Examples of debris include non-operational satellites, rocket bodies, and fragments generated from explosions, collisions, or faulty payload assembly.

Loading next visibility...
Identifier
23040, 1988-077K
Orbit
HEO
Country
Flag of USUS
Related business
Manufacturer
Unknown
Mission
Spacecraft
Bus & Motor
Unknown
Mass
Unknown
Launch date (UTC)
1988-09-02 (38 years ago)
Launch vehicle
Unknown
Launch site
Air Force Eastern Test Range (AFETR)
Object type
Payload
Rocket body
Debris
Shape & HBR
Unknown shape, 0.6 m
Radar Cross Section
Medium (>0.1 m² and <1 m²)

Expand to show TLE details & history
Last TLE update: 2 days ago

TLE from 2 days ago
0 TITAN 34D TRANSTAGE DEB
1 23040U 88077K   26171.08024023  .00000097  00000-0  45736-3 0  9999
2 23040  27.2126  24.7919 7298212 306.6330   6.3585  2.19037448 56911
Epoch: 2026-06-20T01:55Z
TLE epoch observation values (Epoch: 2026-06-20T01:55:32.755Z)
Latitude
0.00117°
Longitude
87.63715°
Altitude
1,801.337 km
Speed
9.03 km/s
True Right ascension
01h 39m 17s
True Declination
0° 00' 04"
Sunlit
Object was in daylight at epoch
Visualization orbit readout
Latitude
Unknown
Longitude
Unknown
Altitude
Unknown
Speed
Unknown
Apparent Right ascension
Unknown
Apparent Declination
Unknown
Sunlit
N/A
Visualization observer readout
Local Sidereal Time
23:08:22
Azimuth
Unknown
Elevation
Unknown
Doppler factor
Unknown
Orbital elements
Apogee altitude
36,951.985 km
Perigee altitude
389.545 km
Semi-major axis
25,048.902 km
Eccentricity
0.72982
Inclination
27.2126°
RAAN
24.7919°
Arg. of periapsis
306.633°
True anomaly
52.52975°
Mean anomaly
6.3585°
Eccentric anomaly
22.07087°
Mean motion
0.54747 °/min
Orbital period
657.57 mins
BSTAR
0.00045736
Loading maneuver chart data...
Computing Atmospheric mass density...

Documentation

Showing up to 5 results
|